Location: Newark
(30.0333°N, 31.2167°E)
Time: 18:34:56
(UTC+00:00)

Tiros 1 despin weight - Pass Details

Date: 20 January 2020
Orbit: 594 x 642 km, 48.2° (Epoch: 27 February)

Event Time Altitude Azimuth Distance (km) Brightness Sun altitude
Rises 11:40:44 0° 271° (W) 2,873 ? 34.9°
Reaches altitude 10° 11:43:40 10° 290° (WNW) 1,980 ? 34.6°
Maximum altitude 11:46:49 18° 334° (NNW) 1,527 ? 34.2°
Drops below altitude 10° 11:50:00 10° 18° (NNE) 2,004 ? 33.9°
Sets 11:53:00 0° 37° (NE) 2,922 ? 33.6°
